TimeCDT,TemperatureF,Dew PointF,Humidity,Sea Level PressureIn,VisibilityMPH,Wind Direction,Wind SpeedMPH,Gust SpeedMPH,PrecipitationIn,Events,Conditions,WindDirDegrees,DateUTC
12:10 AM,53.6,39.2,58,30.11,10.0,Calm,Calm,-,N/A,,Clear,0,2012-09-29 05:10:00
12:30 AM,51.8,39.2,62,30.11,10.0,Calm,Calm,-,N/A,,Clear,0,2012-09-29 05:30:00
12:50 AM,51.8,39.2,62,30.11,10.0,Calm,Calm,-,N/A,,Clear,0,2012-09-29 05:50:00
1:10 AM,50.0,39.2,66,30.11,10.0,West,3.5,-,N/A,,Clear,260,2012-09-29 06:10:00
1:30 AM,48.2,41.0,76,30.11,10.0,Calm,Calm,-,N/A,,Clear,0,2012-09-29 06:30:00
1:50 AM,53.6,41.0,62,30.11,10.0,West,3.5,-,N/A,,Clear,270,2012-09-29 06:50:00
2:10 AM,53.6,39.2,58,30.11,10.0,WSW,3.5,-,N/A,,Clear,250,2012-09-29 07:10:00
2:30 AM,53.6,39.2,58,30.11,10.0,West,4.6,-,N/A,,Clear,260,2012-09-29 07:30:00
2:50 AM,53.6,39.2,58,30.11,10.0,West,3.5,-,N/A,,Clear,260,2012-09-29 07:50:00
3:10 AM,53.6,39.2,58,30.11,10.0,WSW,4.6,-,N/A,,Clear,250,2012-09-29 08:10:00
3:30 AM,53.6,39.2,58,30.11,10.0,WSW,3.5,-,N/A,,Clear,250,2012-09-29 08:30:00
3:50 AM,53.6,39.2,58,30.11,10.0,West,3.5,-,N/A,,Clear,280,2012-09-29 08:50:00
4:10 AM,50.0,39.2,66,30.11,7.0,West,4.6,-,N/A,,Clear,270,2012-09-29 09:10:00
4:30 AM,48.2,37.4,66,30.12,7.0,Calm,Calm,-,N/A,,Clear,0,2012-09-29 09:30:00
4:50 AM,48.2,39.2,71,30.12,10.0,Calm,Calm,-,N/A,,Clear,0,2012-09-29 09:50:00
5:10 AM,46.4,39.2,76,30.11,10.0,West,3.5,-,N/A,,Clear,260,2012-09-29 10:10:00
5:30 AM,48.2,39.2,71,30.11,10.0,West,4.6,-,N/A,,Clear,260,2012-09-29 10:30:00
5:50 AM,46.4,39.2,76,30.12,10.0,Calm,Calm,-,N/A,,Clear,0,2012-09-29 10:50:00
6:10 AM,48.2,39.2,71,30.12,10.0,West,3.5,-,N/A,,Clear,270,2012-09-29 11:10:00
6:30 AM,48.2,39.2,71,30.12,10.0,Calm,Calm,-,N/A,,Clear,0,2012-09-29 11:30:00
6:50 AM,48.2,41.0,76,30.13,10.0,Calm,Calm,-,N/A,,Clear,0,2012-09-29 11:50:00
7:10 AM,46.4,39.2,76,30.13,10.0,Calm,Calm,-,N/A,,Clear,0,2012-09-29 12:10:00
7:30 AM,46.4,39.2,76,30.13,10.0,Calm,Calm,-,N/A,,Clear,0,2012-09-29 12:30:00
7:50 AM,48.2,41.0,76,30.13,10.0,Calm,Calm,-,N/A,,Clear,0,2012-09-29 12:50:00
8:10 AM,48.2,41.0,76,30.13,10.0,Calm,Calm,-,N/A,,Clear,0,2012-09-29 13:10:00
8:30 AM,53.6,44.6,72,30.14,10.0,Calm,Calm,-,N/A,,Clear,0,2012-09-29 13:30:00
8:50 AM,57.2,42.8,59,30.14,10.0,Calm,Calm,-,N/A,,Clear,0,2012-09-29 13:50:00
9:10 AM,59.0,42.8,55,30.14,10.0,Calm,Calm,-,N/A,,Clear,0,2012-09-29 14:10:00
9:30 AM,62.6,42.8,48,30.14,10.0,NW,4.6,-,N/A,,Clear,310,2012-09-29 14:30:00
9:50 AM,68.0,44.6,43,30.13,10.0,WNW,4.6,-,N/A,,Clear,300,2012-09-29 14:50:00
10:10 AM,69.8,44.6,40,30.13,10.0,NW,4.6,-,N/A,,Clear,310,2012-09-29 15:10:00
10:30 AM,73.4,44.6,36,30.13,10.0,NW,4.6,-,N/A,,Clear,320,2012-09-29 15:30:00
10:50 AM,73.4,42.8,33,30.13,10.0,NW,4.6,-,N/A,,Clear,320,2012-09-29 15:50:00
11:10 AM,77.0,44.6,32,30.13,10.0,NNW,5.8,-,N/A,,Clear,330,2012-09-29 16:10:00
11:30 AM,77.0,42.8,29,30.12,10.0,NNW,6.9,-,N/A,,Clear,330,2012-09-29 16:30:00
11:50 AM,78.8,42.8,28,30.11,10.0,NNW,8.1,-,N/A,,Clear,340,2012-09-29 16:50:00
12:10 PM,78.8,42.8,28,30.11,10.0,NW,5.8,-,N/A,,Clear,310,2012-09-29 17:10:00
12:35 PM,78.8,42.8,28,30.10,10.0,North,4.6,-,N/A,,Clear,360,2012-09-29 17:35:00
12:50 PM,78.8,42.8,28,30.10,-9999.0,NNW,4.6,-,N/A,,Clear,340,2012-09-29 17:50:00
1:10 PM,78.8,41.0,26,30.09,10.0,North,5.8,-,N/A,,Clear,350,2012-09-29 18:10:00
1:30 PM,80.6,42.8,26,30.09,10.0,Calm,Calm,-,N/A,,Clear,0,2012-09-29 18:30:00
5:58 PM,78.1,48.2,35,30.01,10.0,Calm,Calm,-,N/A,,Clear,0,2012-09-29 22:58:00
6:09 PM,77.0,45.5,33,30.01,10.0,Calm,Calm,-,N/A,,Clear,0,2012-09-29 23:09:00
6:29 PM,74.5,44.6,34,30.01,10.0,Calm,Calm,-,N/A,,Clear,0,2012-09-29 23:29:00
6:49 PM,70.5,47.1,43,30.01,10.0,Calm,Calm,-,N/A,,Clear,0,2012-09-29 23:49:00
7:09 PM,67.8,48.4,50,30.02,10.0,Calm,Calm,-,N/A,,Clear,0,2012-09-30 00:09:00
7:29 PM,65.3,43.3,45,30.02,10.0,Calm,Calm,-,N/A,,Clear,0,2012-09-30 00:29:00
7:49 PM,66.4,45.3,47,30.02,10.0,Calm,Calm,-,N/A,,Clear,0,2012-09-30 00:49:00
8:09 PM,61.7,44.4,53,30.02,10.0,Calm,Calm,-,N/A,,Clear,0,2012-09-30 01:09:00
8:29 PM,57.9,44.6,61,30.02,10.0,Calm,Calm,-,N/A,,Clear,0,2012-09-30 01:29:00
9:09 PM,55.9,44.8,66,30.03,10.0,Calm,Calm,-,N/A,,Clear,0,2012-09-30 02:09:00
9:29 PM,54.9,44.8,69,30.03,10.0,Calm,Calm,-,N/A,,Clear,0,2012-09-30 02:29:00
9:49 PM,54.3,44.8,70,30.04,10.0,Calm,Calm,-,N/A,,Clear,0,2012-09-30 02:49:00
10:09 PM,54.1,45.7,73,30.04,10.0,Calm,Calm,-,N/A,,Clear,0,2012-09-30 03:09:00
10:29 PM,51.8,44.6,76,30.04,10.0,Calm,Calm,-,N/A,,Clear,0,2012-09-30 03:29:00
10:49 PM,51.8,43.7,74,30.04,10.0,Calm,Calm,-,N/A,,Clear,0,2012-09-30 03:49:00
11:08 PM,53.6,45.7,75,30.04,10.0,Calm,Calm,-,N/A,,Clear,0,2012-09-30 04:08:00
11:29 PM,49.6,43.0,78,30.04,7.0,Calm,Calm,-,N/A,,Clear,0,2012-09-30 04:29:00
11:49 PM,49.1,44.6,84,30.04,10.0,Calm,Calm,-,N/A,,Clear,0,2012-09-30 04:49:00